Satellite: MAST
Catalog number: 31126
Epoch time: 10196.58241230
Element set: 913
Inclination: 097.9355 deg
RA of node: 237.1246 deg
Eccentricity: 0.0095146
Arg of perigee: 137.3247 deg
Mean anomaly: 223.5410 deg
Mean motion: 14.53601830 rev/day
Decay rate: 6.6e-07 rev/day^2
Epoch rev: 17218
Checksum: 272
Satellite: CAPE1
Catalog number: 31130
Epoch time: 10196.79931752
Element set: 934
Inclination: 097.9357 deg
RA of node: 234.6823 deg
Eccentricity: 0.0103658
Arg of perigee: 144.7714 deg
Mean anomaly: 216.0342 deg
Mean motion: 14.52197759 rev/day
Decay rate: -2.7e-07 rev/day^2
Epoch rev: 17181
Checksum: 310
Satellite: COMPASS
Catalog number: 32787
Epoch time: 10196.73058185
Element set: 724
Inclination: 097.8935 deg
RA of node: 261.0940 deg
Eccentricity: 0.0015492
Arg of perigee: 188.6737 deg
Mean anomaly: 171.4225 deg
Mean motion: 14.81906531 rev/day
Decay rate: -5.7e-07 rev/day^2
Epoch rev: 11972
Checksum: 321
Satellite: AAUSAT2
Catalog number: 32788
Epoch time: 10195.17801300
Element set: 716
Inclination: 097.8929 deg
RA of node: 259.6953 deg
Eccentricity: 0.0014652
Arg of perigee: 194.4242 deg
Mean anomaly: 165.6503 deg
Mean motion: 14.82050835 rev/day
Decay rate: -.00000000 rev/day^2
Epoch rev: 11950
Checksum: 288
Satellite: DO-64
Catalog number: 32789
Epoch time: 10195.72426691
Element set: 734
Inclination: 097.9003 deg
RA of node: 260.7402 deg
Eccentricity: 0.0015327
Arg of perigee: 190.7514 deg
Mean anomaly: 169.3370 deg
Mean motion: 14.82206247 rev/day
Decay rate: 1.45e-06 rev/day^2
Epoch rev: 11958
Checksum: 309
Satellite: CO-66
Catalog number: 32791
Epoch time: 10196.68917615
Element set: 717
Inclination: 097.8936 deg
RA of node: 261.0659 deg
Eccentricity: 0.0015632
Arg of perigee: 187.4304 deg
Mean anomaly: 172.6691 deg
Mean motion: 14.81689840 rev/day
Decay rate: 5.12e-06 rev/day^2
Epoch rev: 11967
Checksum: 347
Satellite: RS-30
Catalog number: 32953
Epoch time: 10196.54206965
Element set: 869
Inclination: 082.5000 deg
RA of node: 012.0420 deg
Eccentricity: 0.0019676
Arg of perigee: 042.6781 deg
Mean anomaly: 317.5825 deg
Mean motion: 12.43006428 rev/day
Decay rate: 1.0e-07 rev/day^2
Epoch rev: 9726
Checksum: 280
Satellite: TACSAT-3
Catalog number: 35001
Epoch time: 10195.96097267
Element set: 0336
Inclination: 040.4557 deg
RA of node: 047.2480 deg
Eccentricity: 0.0021169
Arg of perigee: 217.1810 deg
Mean anomaly: 142.7540 deg
Mean motion: 15.42006528 rev/day
Decay rate: 3.281e-05 rev/day^2
Epoch rev: 06492
Checksum: 275
Satellite: PHARMSAT
Catalog number: 35002
Epoch time: 10195.97019965
Element set: 0317
Inclination: 040.4694 deg
RA of node: 045.0942 deg
Eccentricity: 0.0024338
Arg of perigee: 220.0680 deg
Mean anomaly: 139.8340 deg
Mean motion: 15.42510805 rev/day
Decay rate: 2.738e-05 rev/day^2
Epoch rev: 06494
Checksum: 282
Satellite: HAWKSAT1
Catalog number: 35003
Epoch time: 10195.95083205
Element set: 0340
Inclination: 040.4604 deg
RA of node: 039.1841 deg
Eccentricity: 0.0022468
Arg of perigee: 236.7994 deg
Mean anomaly: 123.0667 deg
Mean motion: 15.45813011 rev/day
Decay rate: 6.425e-05 rev/day^2
Epoch rev: 06501
Checksum: 264
Satellite: CP6
Catalog number: 35004
Epoch time: 10195.93217990
Element set: 0344
Inclination: 040.4614 deg
RA of node: 038.1521 deg
Eccentricity: 0.0021300
Arg of perigee: 240.6310 deg
Mean anomaly: 119.2376 deg
Mean motion: 15.46718961 rev/day
Decay rate: 7.694e-05 rev/day^2
Epoch rev: 06501
Checksum: 269
Satellite: AEROCUB3
Catalog number: 35005
Epoch time: 10196.85016627
Element set: 379
Inclination: 040.4671 deg
RA of node: 028.6698 deg
Eccentricity: 0.0019294
Arg of perigee: 268.1959 deg
Mean anomaly: 091.6647 deg
Mean motion: 15.52864817 rev/day
Decay rate: 2.5915e-04 rev/day^2
Epoch rev: 6520
Checksum: 335
Satellite: CASTOR
Catalog number: 35694
Epoch time: 10196.71559655
Element set: 559
Inclination: 051.6341 deg
RA of node: 046.7186 deg
Eccentricity: 0.0002283
Arg of perigee: 273.3938 deg
Mean anomaly: 086.7006 deg
Mean motion: 16.08560449 rev/day
Decay rate: 1.29543e-03 rev/day^2
Epoch rev: 5564
Checksum: 328
Satellite: METEOR-M
Catalog number: 35865
Epoch time: 10196.70515565
Element set: 474
Inclination: 098.7563 deg
RA of node: 250.2981 deg
Eccentricity: 0.0002014
Arg of perigee: 304.0539 deg
Mean anomaly: 056.0403 deg
Mean motion: 14.21830899 rev/day
Decay rate: 1.76e-06 rev/day^2
Epoch rev: 4277
Checksum: 296
